Dewpoint
39 39 39 39 39 39 39 40 41 42 41 40 39 38 38 38 36 36 36 37 36 36 36 37 38 36 36 36 36 38 41 39
39 39 40 38 37 37 38 38 39 39 39 38 37 37 36 35 35 34 34 35 35 34 35 35 36 35 35 35 35 36 38 37
38 39 38 36 37 37 37 37 37 38 38 38 37 35 35 35 34 34 33 34 34 33 34 34 34 35 34 34 34 35 35 37
38 38 36 36 36 36 36 35 36 36 37 36 35 34 34 33 32 32 32 33 34 34 33 33 33 34 33 33 34 34 33 35
38 37 34 35 35 36 35 35 34 34 34 33 32 32 31 32 32 32 32 32 32 32 32 31 31 32 32 33 34 33 33 33
38 35 34 35 35 35 34 34 33 33 33 33 32 31 31 31 31 30 31 31 31 31 31 30 30 31 31 32 32 31 32 32
37 35 35 35 35 34 33 33 32 32 32 31 31 30 30 29 30 30 30 30 30 30 29 29 29 30 30 30 30 29 29 30
35 34 34 35 34 34 33 32 32 32 31 30 30 30 30 29 29 29 28 29 29 28 28 28 28 28 28 28 27 27 26 27
35 34 34 34 34 33 33 32 32 32 31 30 30 30 30 30 29 29 29 28 28 26 25 27 27 28 26 25 25 25 24 25
35 35 34 34 34 34 34 33 32 32 31 31 30 30 30 29 29 29 28 26 25 24 24 25 26 27 25 24 24 23 23 23
37 35 35 34 35 36 35 34 32 32 31 31 30 30 30 29 28 27 26 24 24 23 23 24 25 25 24 23 22 23 21 22
38 36 35 35 36 36 35 33 33 32 32 31 31 30 29 27 26 26 24 23 23 23 23 24 24 21 21 21 20 20 21 21
37 36 35 35 35 35 35 33 33 33 32 31 31 30 26 25 25 25 23 22 23 23 24 23 23 21 20 20 19 19 19 19
36 35 35 35 35 36 36 34 33 32 31 29 29 28 26 24 25 25 24 22 22 22 23 20 20 20 20 19 19 18 18 19
36 35 35 35 37 36 36 34 33 31 29 28 28 27 25 24 24 24 23 22 22 22 23 23 20 18 17 18 17 18 18 18
37 36 36 37 37 37 34 32 30 29 28 28 28 27 26 24 24 23 23 22 21 22 22 22 22 19 18 19 17 17 17 17
38 37 37 37 37 34 31 31 30 30 28 28 27 27 25 22 22 21 21 19 19 18 19 20 21 17 20 21 19 17 17 16
38 37 37 37 35 32 31 30 30 29 27 26 24 22 20 17 20 19 16 13 17 16 10 15 13 14 19 20 19 14 13 11
37 36 35 34 33 32 30 30 29 27 25 23 23 21 17 18 14 12 10 8 5 5 9 12 16 19 20 20 19 5 8 9
Lifted_Index
5 5 6 7 8 8 9 9 9 10 10 10 10 11 12 14 14 14 14 14 14 14 13 13 13 13 13 13 13 13 13 12
5 5 6 7 8 9 9 9 10 10 11 11 11 12 13 14 14 13 13 13 13 13 12 12 12 12 12 12 12 12 13 12
6 6 6 7 8 9 9 10 10 11 11 12 12 13 13 13 13 12 12 12 11 11 11 11 11 11 11 11 11 11 12 12
6 6 6 7 8 9 9 10 11 12 12 13 13 13 12 11 11 11 11 11 11 11 11 10 10 10 10 10 10 10 10 10
6 6 6 7 8 8 9 10 12 13 13 13 12 11 10 10 9 10 10 10 10 11 10 10 10 10 10 10 10 10 10 10
6 6 6 6 7 8 9 10 11 12 12 12 11 10 9 9 9 9 10 10 11 11 11 11 11 11 11 11 11 11 11 10
6 6 5 6 6 7 8 9 10 11 11 10 10 9 8 8 8 8 9 10 11 11 11 11 12 12 12 11 11 11 12 11
6 5 5 4 5 5 6 7 8 9 9 9 9 9 8 7 8 8 9 11 12 12 12 13 13 13 13 13 13 13 12 12
4 4 3 3 3 4 4 5 5 7 8 9 9 8 8 8 8 9 11 12 13 14 14 15 15 15 15 15 15 14 14 13
3 2 2 2 2 2 3 3 4 5 7 8 8 8 8 8 9 10 12 13 14 15 16 16 16 17 17 17 17 16 16 15
2 1 1 1 1 1 2 2 3 5 6 7 8 8 9 9 10 12 13 14 15 15 16 16 17 17 17 17 17 17 17 17
1 1 0 0 1 1 1 1 2 4 5 6 7 8 9 10 11 12 13 14 15 16 16 16 17 17 17 17 17 17 17 17
1 1 0 0 0 1 1 1 2 4 5 5 6 7 9 10 12 13 14 15 15 16 16 16 16 16 17 17 17 17 17 17
1 1 0 0 -0 0 1 2 3 4 4 5 5 7 9 11 12 14 14 15 16 16 16 16 16 16 17 17 17 17 16 16
1 0 0 -0 -0 0 1 2 3 3 4 5 6 7 10 11 13 14 15 15 16 16 16 16 16 16 16 17 16 16 16 16
1 0 -0 -0 -0 0 1 2 3 3 3 4 6 8 10 12 13 14 15 15 16 16 16 16 16 16 16 16 16 16 16 17
0 -0 -1 -1 -1 -0 1 2 3 3 4 5 6 8 11 12 13 14 15 15 15 16 16 15 15 16 16 16 16 16 16 17
-0 -1 -1 -1 -1 -0 1 2 3 4 4 5 7 9 11 13 14 14 15 15 15 15 15 15 15 15 16 16 17 17 17 17
-1 -1 -1 -1 -1 0 1 2 3 4 5 6 8 10 12 13 14 14 15 15 15 15 15 15 15 15 16 17 17 17 17 17